Regional Weather Roundup
Issued by NWS

Home | Current Version | Previous Version | Text Only | Print | Product List | Glossary On
Versions: 1 2 3 4 5 6 7 8 9 10 11 12 13 14 15 16 17 18 19 20 21 22 23 24 25 26 27 28 29 30 31 32 33 34 35 36 37 38 39 40 41 42 43 44 45 46 47 48 49 50
000
ASUS42 KKEY 030510
RWRKEY

FLORIDA REGIONAL WEATHER ROUNDUP FOR THE FLORIDA KEYS
NATIONAL WEATHER SERVICE KEY WEST FLORIDA
100 AM EDT THU SEP 03 2015

...SOUTH FLORIDA AND THE KEYS...

CITY           SKY/WX    TMP DP  RH WIND       PRES   REMARKS
FORT MYERS     MOCLDY    79  74  84 CALM      30.01F
SW REGIONAL AP MOCLDY    80  75  84 SW3       30.01F
NAPLES         CLOUDY    82  75  79 NE3       30.01F
MIAMI          PTCLDY    82  78  88 CALM      30.02S HX  91
WEST KENDALL   CLEAR     78  77  96 W3        30.02F
HOMESTEAD      CLEAR     79  76  91 W1        30.01F
MARATHON       CLEAR     85  77  77 E3        30.01F HX  95
BOCA CHICA NAS CLEAR     84  76  76 E7        30.02S HX  93
KEY WEST INTL  CLEAR     85  76  74 E8        30.02S HX  94

...INTERNATIONAL WEATHER...

CITY           SKY/WX    TMP DP  RH WIND       PRES   REMARKS
NASSAU BAHAMAS NOT AVBL
CANCUN MEXICO  PTCLDY    77  75  94 N3        29.99S
COZUMEL MEXICO MOCLDY    72  72 100 CALM      29.99F

ADJACENT COASTAL WATERS...

STATION/POSITION TIME  SKY/WX   TEMP    WIND        PRES    WAVE
                                AIR SEA DIR/SP/G            HT/PER
                 (UTC)          (F)     (DEG/KT/KT) (MB)    (FT/S)
PULASKI SHOAL LI 0400                                 N/A
SAND KEY         0450            86     210/  8     1016.5F
SOMBRERO KEY     NOT AVBL
LONG KEY         0400            85 89  110/  6/  7 1017.5R
MOLASSES REEF    0500            84 87   90/  5/  6 1016.3F
FOWEY ROCKS      NOT AVBL

$$



USA.gov is the U.S. government's official web portal to all federal, state and local government web resources and services.